| time (UTC) | temp F | wind direction | speed knots | gust knots | rain 1hr in | rain 24hr in | rain mn in | humidity % | barometer mb |
| 20260507162236 | 54 | 139 | 0.9 | 1.7 | 0.00 | 0.15 | 0.14 | 77 | 1012.7 |
| 20260507161733 | 53 | 125 | 0.9 | 1.7 | 0.00 | 0.15 | 0.14 | 79 | 1012.7 |
| 20260507161233 | 53 | 169 | 0.9 | 1.7 | 0.00 | 0.15 | 0.14 | 79 | 1012.9 |
| 20260507160739 | 53 | 111 | 0.9 | 1.7 | 0.00 | 0.15 | 0.14 | 77 | 1012.8 |
| 20260507160231 | 53 | 107 | 0.9 | 1.7 | 0.00 | 0.15 | 0.14 | 79 | 1012.7 |
| 20260507155731 | 54 | 126 | 0.0 | 1.7 | 0.00 | 0.15 | 0.14 | 81 | 1012.6 |
| 20260507155456 | 53 | 85 | 0.0 | 1.7 | 0.00 | 0.15 | 0.14 | 79 | 1012.5 |
| 20260507154731 | 53 | 75 | 0.0 | 1.7 | 0.00 | 0.15 | 0.14 | 78 | 1012.5 |
| 20260507154451 | 54 | 53 | 0.0 | 1.7 | 0.00 | 0.15 | 0.14 | 80 | 1012.5 |
| 20260507153731 | 53 | 59 | 0.0 | 1.7 | 0.00 | 0.15 | 0.14 | 79 | 1012.7 |
| 20260507153225 | 53 | 57 | 0.0 | 1.7 | 0.00 | 0.15 | 0.14 | 77 | 1012.8 |
| 20260507152725 | 54 | 53 | 0.0 | 1.7 | 0.00 | 0.15 | 0.14 | 78 | 1012.6 |
| 20260507152224 | 54 | 59 | 0.0 | 1.7 | 0.00 | 0.15 | 0.14 | 77 | 1012.6 |
| 20260507151730 | 54 | 59 | 0.0 | 1.7 | 0.00 | 0.15 | 0.14 | 78 | 1012.6 |
| 20260507151220 | 53 | 55 | 0.0 | 1.7 | 0.00 | 0.15 | 0.14 | 77 | 1012.8 |
| 20260507150949 | 53 | 44 | 0.0 | 1.7 | 0.00 | 0.15 | 0.14 | 72 | 1012.8 |
| 20260507150220 | 54 | 17 | 0.0 | 1.7 | 0.00 | 0.15 | 0.14 | 72 | 1012.9 |
| 20260507145721 | 54 | 56 | 0.0 | 1.7 | 0.00 | 0.15 | 0.14 | 75 | 1012.6 |
| 20260507145221 | 54 | 13 | 0.0 | 3.5 | 0.00 | 0.15 | 0.14 | 73 | 1012.8 |
| 20260507144719 | 54 | 13 | 0.9 | 2.6 | 0.00 | 0.15 | 0.14 | 72 | 1012.8 |
| 20260507144438 | 54 | 23 | 0.9 | 3.5 | 0.00 | 0.15 | 0.14 | 71 | 1012.9 |
| 20260507143719 | 54 | 19 | 0.9 | 2.6 | 0.00 | 0.15 | 0.14 | 73 | 1012.9 |
| 20260507143219 | 54 | 60 | 0.9 | 2.6 | 0.00 | 0.15 | 0.14 | 74 | 1013.0 |
| 20260507142938 | 54 | 30 | 0.9 | 2.6 | 0.00 | 0.16 | 0.14 | 73 | 1013.3 |
| 20260507142438 | 54 | 51 | 0.0 | 2.6 | 0.00 | 0.16 | 0.14 | 74 | 1013.3 |
| 20260507141718 | 54 | 11 | 0.0 | 2.6 | 0.00 | 0.16 | 0.14 | 74 | 1013.3 |
| 20260507141440 | 54 | 19 | 0.0 | 2.6 | 0.00 | 0.16 | 0.14 | 79 | 1013.5 |
| 20260507140719 | 54 | 19 | 0.0 | 2.6 | 0.00 | 0.17 | 0.14 | 75 | 1013.4 |
| 20260507140218 | 54 | 15 | 0.0 | 2.6 | 0.00 | 0.17 | 0.14 | 77 | 1013.3 |
| 20260507135719 | 54 | 22 | 0.9 | 2.6 | 0.00 | 0.19 | 0.14 | 77 | 1013.3 |
| 20260507135220 | 54 | 36 | 0.9 | 2.6 | 0.00 | 0.20 | 0.14 | 76 | 1013.3 |
| 20260507134720 | 54 | 29 | 0.0 | 1.7 | 0.00 | 0.21 | 0.14 | 76 | 1013.3 |
| 20260507134219 | 54 | 5 | 0.0 | 5.2 | 0.00 | 0.21 | 0.14 | 78 | 1013.4 |
| 20260507133719 | 55 | 29 | 0.9 | 5.2 | 0.00 | 0.21 | 0.14 | 77 | 1013.4 |
| 20260507133218 | 55 | 5 | 0.9 | 5.2 | 0.00 | 0.21 | 0.14 | 77 | 1013.3 |
| 20260507132717 | 55 | 325 | 0.9 | 5.2 | 0.00 | 0.21 | 0.14 | 78 | 1013.2 |
| 20260507132215 | 55 | 0 | 0.9 | 4.3 | 0.00 | 0.21 | 0.14 | 77 | 1013.2 |
| 20260507131715 | 55 | 350 | 0.9 | 4.3 | 0.00 | 0.21 | 0.14 | 80 | 1013.3 |
| 20260507131214 | 55 | 355 | 0.9 | 5.2 | 0.00 | 0.22 | 0.14 | 81 | 1013.1 |
| 20260507130713 | 55 | 40 | 0.9 | 5.2 | 0.00 | 0.22 | 0.14 | 82 | 1013.2 |
| 20260507130211 | 55 | 351 | 0.9 | 5.2 | 0.00 | 0.23 | 0.14 | 82 | 1013.0 |
| 20260507125706 | 55 | 35 | 0.9 | 5.2 | 0.00 | 0.24 | 0.14 | 81 | 1013.0 |
| 20260507125431 | 55 | 350 | 0.9 | 2.6 | 0.00 | 0.25 | 0.14 | 84 | 1013.0 |
| 20260507124700 | 55 | 16 | 0.9 | 3.5 | 0.00 | 0.25 | 0.14 | 83 | 1013.0 |
| 20260507124159 | 55 | 343 | 0.9 | 3.5 | 0.00 | 0.26 | 0.14 | 82 | 1013.2 |
| 20260507123700 | 55 | 9 | 0.9 | 4.3 | 0.00 | 0.26 | 0.14 | 82 | 1013.2 |
| 20260507123415 | 55 | 13 | 0.9 | 4.3 | 0.00 | 0.27 | 0.14 | 82 | 1013.1 |
| 20260507122654 | 55 | 355 | 0.9 | 4.3 | 0.00 | 0.27 | 0.14 | 82 | 1013.0 |
| 20260507122154 | 55 | 38 | 0.9 | 4.3 | 0.00 | 0.28 | 0.14 | 83 | 1012.8 |
| 20260507121653 | 55 | 69 | 0.9 | 3.5 | 0.00 | 0.28 | 0.14 | 82 | 1012.9 |
| 20260507121152 | 55 | 26 | 0.9 | 3.5 | 0.00 | 0.28 | 0.14 | 82 | 1012.8 |
| 20260507120651 | 55 | 37 | 0.9 | 3.5 | 0.00 | 0.28 | 0.14 | 82 | 1012.7 |
| 20260507120148 | 55 | 346 | 0.9 | 3.5 | 0.00 | 0.28 | 0.14 | 82 | 1012.6 |
| 20260507115649 | 55 | 16 | 0.9 | 3.5 | 0.00 | 0.28 | 0.14 | 83 | 1012.4 |
| 20260507115405 | 55 | 11 | 0.9 | 3.5 | 0.00 | 0.28 | 0.14 | 84 | 1012.2 |
| 20260507114651 | 55 | 0 | 0.9 | 3.5 | 0.00 | 0.28 | 0.14 | 85 | 1012.5 |
| 20260507114142 | 54 | 355 | 0.9 | 2.6 | 0.00 | 0.28 | 0.14 | 85 | 1012.6 |
| 20260507113642 | 54 | 325 | 0.0 | 3.5 | 0.00 | 0.28 | 0.14 | 86 | 1012.6 |
| 20260507113146 | 54 | 321 | 0.0 | 3.5 | 0.00 | 0.28 | 0.14 | 86 | 1012.4 |
| 20260507112641 | 54 | 355 | 0.9 | 3.5 | 0.00 | 0.28 | 0.14 | 86 | 1012.4 |
| 20260507112407 | 53 | 342 | 0.9 | 3.5 | 0.00 | 0.28 | 0.14 | 85 | 1012.5 |
| 20260507111640 | 53 | 42 | 0.0 | 2.6 | 0.00 | 0.28 | 0.14 | 86 | 1012.2 |
| 20260507111138 | 53 | 5 | 0.0 | 1.7 | 0.00 | 0.28 | 0.14 | 86 | 1012.0 |
| 20260507110857 | 53 | 355 | 0.0 | 1.7 | 0.00 | 0.28 | 0.14 | 86 | 1011.9 |
| 20260507110137 | 53 | 36 | 0.0 | 2.6 | 0.00 | 0.28 | 0.14 | 87 | 1012.0 |
| 20260507105636 | 53 | 319 | 0.0 | 2.6 | 0.00 | 0.28 | 0.14 | 87 | 1012.1 |
| 20260507105137 | 53 | 5 | 0.9 | 2.6 | 0.00 | 0.28 | 0.14 | 87 | 1012.4 |
| 20260507104640 | 53 | 346 | 0.9 | 2.6 | 0.00 | 0.28 | 0.14 | 87 | 1012.6 |
| 20260507104351 | 53 | 15 | 0.0 | 1.7 | 0.00 | 0.28 | 0.14 | 87 | 1012.4 |
| 20260507103634 | 53 | 305 | 0.0 | 1.7 | 0.00 | 0.28 | 0.14 | 87 | 1012.3 |
| 20260507103133 | 53 | 310 | 0.0 | 2.6 | 0.00 | 0.28 | 0.14 | 88 | 1012.2 |
| 20260507102628 | 53 | 43 | 0.0 | 2.6 | 0.00 | 0.28 | 0.14 | 88 | 1011.9 |
| 20260507102346 | 53 | 355 | 0.0 | 1.7 | 0.00 | 0.28 | 0.14 | 88 | 1011.9 |
| 20260507101628 | 53 | 94 | 0.0 | 1.7 | 0.00 | 0.28 | 0.14 | 88 | 1012.2 |
| 20260507101126 | 53 | 96 | 0.0 | 1.7 | 0.00 | 0.28 | 0.14 | 88 | 1012.0 |
| 20260507100626 | 53 | 36 | 0.0 | 1.7 | 0.00 | 0.28 | 0.14 | 88 | 1012.0 |
| 20260507100126 | 53 | 20 | 0.0 | 1.7 | 0.00 | 0.28 | 0.14 | 88 | 1011.8 |
| 20260507095624 | 53 | 70 | 0.0 | 1.7 | 0.00 | 0.28 | 0.14 | 88 | 1011.8 |
| 20260507095124 | 53 | 51 | 0.0 | 1.7 | 0.00 | 0.28 | 0.14 | 89 | 1011.8 |
| 20260507095113 | 54 | 55 | 0.0 | 1.7 | 0.00 | 0.28 | 0.14 | 89 | 1011.9 |
| 20260507094122 | 54 | 84 | 0.0 | 1.7 | 0.00 | 0.28 | 0.14 | 89 | 1011.9 |
| 20260507093622 | 54 | 13 | 0.0 | 0.9 | 0.00 | 0.28 | 0.14 | 90 | 1012.2 |
| 20260507093121 | 54 | 22 | 0.0 | 2.6 | 0.00 | 0.28 | 0.14 | 89 | 1012.0 |
| 20260507092620 | 54 | 22 | 0.0 | 2.6 | 0.00 | 0.28 | 0.14 | 89 | 1012.0 |
| 20260507092120 | 54 | 355 | 0.0 | 2.6 | 0.00 | 0.28 | 0.14 | 89 | 1012.0 |
| 20260507091619 | 54 | 5 | 0.9 | 2.6 | 0.00 | 0.28 | 0.14 | 89 | 1011.9 |
| 20260507091118 | 54 | 37 | 0.0 | 2.6 | 0.00 | 0.28 | 0.14 | 90 | 1011.7 |
| 20260507090618 | 54 | 80 | 0.0 | 2.6 | 0.00 | 0.28 | 0.14 | 90 | 1011.7 |
| 20260507090122 | 54 | 83 | 0.0 | 2.6 | 0.00 | 0.28 | 0.14 | 90 | 1011.7 |
| 20260507085616 | 54 | 73 | 0.0 | 2.6 | 0.00 | 0.28 | 0.14 | 90 | 1011.5 |
| 20260507085116 | 54 | 40 | 0.0 | 2.6 | 0.00 | 0.28 | 0.14 | 90 | 1011.6 |
| 20260507084615 | 54 | 9 | 0.0 | 1.7 | 0.00 | 0.28 | 0.14 | 90 | 1011.5 |
| 20260507084110 | 54 | 16 | 0.0 | 1.7 | 0.00 | 0.28 | 0.14 | 90 | 1011.5 |
| 20260507083831 | 54 | 16 | 0.0 | 2.6 | 0.00 | 0.28 | 0.14 | 90 | 1011.5 |
| 20260507083109 | 54 | 34 | 0.0 | 2.6 | 0.00 | 0.28 | 0.14 | 90 | 1011.5 |
| 20260507082608 | 54 | 63 | 0.0 | 1.7 | 0.00 | 0.28 | 0.14 | 90 | 1011.7 |
| 20260507082108 | 54 | 15 | 0.0 | 1.7 | 0.00 | 0.28 | 0.14 | 90 | 1011.5 |
| 20260507081607 | 55 | 38 | 0.0 | 1.7 | 0.00 | 0.28 | 0.14 | 90 | 1011.6 |
| 20260507081104 | 55 | 347 | 0.0 | 1.7 | 0.00 | 0.28 | 0.14 | 90 | 1011.6 |
| 20260507080604 | 55 | 82 | 0.9 | 4.3 | 0.00 | 0.28 | 0.14 | 90 | 1011.5 |
| 20260507080103 | 55 | 17 | 0.9 | 4.3 | 0.01 | 0.28 | 0.14 | 90 | 1011.7 |
| 20260507075607 | 55 | 306 | 0.9 | 4.3 | 0.01 | 0.28 | 0.14 | 90 | 1011.7 |
| 20260507075101 | 55 | 316 | 0.9 | 4.3 | 0.01 | 0.28 | 0.14 | 90 | 1011.4 |
| 20260507074613 | 55 | 12 | 0.9 | 3.5 | 0.01 | 0.28 | 0.14 | 91 | 1011.1 |
| 20260507074100 | 55 | 9 | 0.9 | 5.2 | 0.01 | 0.28 | 0.14 | 91 | 1010.9 |
| 20260507073600 | 55 | 304 | 0.9 | 5.2 | 0.01 | 0.28 | 0.14 | 91 | 1011.3 |
| 20260507073059 | 55 | 336 | 1.7 | 5.2 | 0.01 | 0.28 | 0.14 | 90 | 1011.0 |
| 20260507072556 | 55 | 351 | 0.9 | 5.2 | 0.01 | 0.28 | 0.14 | 90 | 1011.1 |
| 20260507072315 | 56 | 324 | 0.9 | 5.2 | 0.01 | 0.28 | 0.14 | 90 | 1011.1 |
| 20260507071559 | 56 | 51 | 0.9 | 3.5 | 0.01 | 0.28 | 0.14 | 90 | 1010.5 |
| 20260507071054 | 56 | 84 | 0.9 | 3.5 | 0.01 | 0.28 | 0.14 | 91 | 1010.8 |
| 20260507070604 | 56 | 41 | 0.9 | 3.5 | 0.01 | 0.28 | 0.14 | 91 | 1010.8 |
| 20260507070310 | 56 | 17 | 0.9 | 4.3 | 0.00 | 0.27 | 0.13 | 91 | 1011.0 |
| 20260507065548 | 57 | 350 | 1.7 | 4.3 | 0.00 | 0.27 | 0.13 | 91 | 1011.0 |
| 20260507065058 | 57 | 9 | 1.7 | 5.2 | 0.00 | 0.27 | 0.13 | 91 | 1010.9 |
| 20260507064546 | 57 | 299 | 1.7 | 5.2 | 0.00 | 0.27 | 0.13 | 91 | 1011.0 |
| 20260507064046 | 57 | 25 | 1.7 | 9.6 | 0.00 | 0.27 | 0.13 | 91 | 1011.0 |
| 20260507063552 | 57 | 28 | 1.7 | 9.6 | 0.00 | 0.27 | 0.13 | 91 | 1011.0 |
| 20260507063046 | 58 | 59 | 1.7 | 8.7 | 0.00 | 0.27 | 0.13 | 92 | 1011.0 |
| 20260507062546 | 58 | 15 | 1.7 | 4.3 | 0.00 | 0.27 | 0.13 | 92 | 1011.0 |
| 20260507062046 | 58 | 319 | 1.7 | 7.0 | 0.01 | 0.27 | 0.13 | 92 | 1011.0 |
| 20260507061545 | 58 | 62 | 0.9 | 7.0 | 0.01 | 0.27 | 0.13 | 92 | 1010.8 |
| 20260507061044 | 58 | 304 | 1.7 | 7.0 | 0.01 | 0.27 | 0.13 | 93 | 1011.2 |
| 20260507060544 | 58 | 343 | 2.6 | 7.0 | 0.02 | 0.27 | 0.13 | 93 | 1011.1 |
| 20260507060044 | 58 | 308 | 1.7 | 7.0 | 0.02 | 0.27 | 0.13 | 93 | 1011.0 |
| 20260507055543 | 58 | 350 | 1.7 | 5.2 | 0.02 | 0.27 | 0.13 | 93 | 1010.9 |
| 20260507055038 | 58 | 355 | 1.7 | 4.3 | 0.03 | 0.27 | 0.13 | 93 | 1010.8 |
| 20260507054549 | 58 | 321 | 2.6 | 5.2 | 0.03 | 0.27 | 0.13 | 93 | 1010.3 |
| 20260507054043 | 58 | 335 | 1.7 | 5.2 | 0.03 | 0.27 | 0.13 | 92 | 1009.9 |
| 20260507053541 | 58 | 314 | 0.9 | 3.5 | 0.03 | 0.27 | 0.13 | 92 | 1009.4 |
| 20260507053035 | 58 | 62 | 0.9 | 3.5 | 0.03 | 0.27 | 0.13 | 92 | 1009.2 |
| 20260507052535 | 58 | 22 | 0.9 | 3.5 | 0.03 | 0.27 | 0.13 | 93 | 1009.3 |
| 20260507052034 | 59 | 22 | 0.9 | 3.5 | 0.05 | 0.26 | 0.12 | 93 | 1009.4 |
| 20260507051541 | 59 | 109 | 0.9 | 3.5 | 0.07 | 0.26 | 0.12 | 92 | 1009.6 |
| 20260507051035 | 59 | 91 | 0.9 | 5.2 | 0.08 | 0.26 | 0.12 | 92 | 1010.0 |
| 20260507050534 | 59 | 336 | 0.9 | 5.2 | 0.08 | 0.25 | 0.11 | 91 | 1010.8 |
| 20260507050253 | 59 | 355 | 0.9 | 7.8 | 0.10 | 0.25 | 0.11 | 91 | 1011.0 |
| 20260507045535 | 59 | 22 | 1.7 | 7.8 | 0.12 | 0.25 | 0.11 | 91 | 1010.9 |
| 20260507045035 | 59 | 329 | 1.7 | 7.8 | 0.11 | 0.24 | 0.10 | 90 | 1011.0 |
| 20260507044535 | 60 | 9 | 2.6 | 7.8 | 0.11 | 0.24 | 0.10 | 90 | 1010.9 |
| 20260507044303 | 60 | 327 | 2.6 | 7.8 | 0.11 | 0.24 | 0.10 | 92 | 1010.9 |
| 20260507043534 | 61 | 351 | 1.7 | 6.1 | 0.11 | 0.24 | 0.10 | 92 | 1010.9 |
| 20260507043035 | 61 | 335 | 2.6 | 6.1 | 0.11 | 0.24 | 0.10 | 92 | 1010.1 |
| 20260507042534 | 61 | 47 | 3.5 | 7.0 | 0.11 | 0.24 | 0.10 | 91 | 1010.2 |
| 20260507042035 | 62 | 292 | 3.5 | 8.7 | 0.08 | 0.21 | 0.09 | 91 | 1010.6 |
| 20260507041535 | 62 | 341 | 2.6 | 8.7 | 0.06 | 0.19 | 0.06 | 91 | 1010.6 |
| 20260507041034 | 63 | 329 | 2.6 | 11.3 | 0.05 | 0.18 | 0.05 | 91 | 1010.3 |
| 20260507040756 | 63 | 41 | 2.6 | 11.3 | 0.04 | 0.17 | 0.03 | 91 | 1010.4 |
| 20260507040259 | 63 | 43 | 1.7 | 6.1 | 0.02 | 0.15 | 0.01 | 92 | 1010.4 |
| 20260507035526 | 63 | 233 | 0.9 | 2.6 | 0.00 | 0.13 | 0.13 | 92 | 1010.2 |
| 20260507035024 | 63 | 355 | 0.0 | 1.7 | 0.00 | 0.13 | 0.13 | 92 | 1010.3 |
| 20260507034525 | 63 | 355 | 0.0 | 1.7 | 0.00 | 0.13 | 0.13 | 92 | 1010.3 |
| 20260507034240 | 63 | 355 | 0.0 | 1.7 | 0.00 | 0.13 | 0.13 | 92 | 1010.2 |
| 20260507033528 | 62 | 355 | 0.0 | 1.7 | 0.00 | 0.13 | 0.13 | 92 | 1010.0 |
| 20260507033022 | 62 | 355 | 0.0 | 1.7 | 0.00 | 0.13 | 0.13 | 92 | 1009.8 |
| 20260507032533 | 63 | 355 | 0.0 | 1.7 | 0.00 | 0.13 | 0.13 | 91 | 1009.7 |
| 20260507032241 | 63 | 355 | 0.0 | 1.7 | 0.00 | 0.13 | 0.13 | 91 | 1009.7 |
| 20260507031520 | 63 | 355 | 0.0 | 1.7 | 0.00 | 0.13 | 0.13 | 91 | 1009.7 |
| 20260507031019 | 63 | 355 | 0.9 | 1.7 | 0.00 | 0.13 | 0.13 | 91 | 1009.7 |
| 20260507030514 | 63 | 355 | 0.9 | 1.7 | 0.00 | 0.13 | 0.13 | 90 | 1009.8 |
| 20260507030239 | 63 | 111 | 0.0 | 1.7 | 0.00 | 0.13 | 0.13 | 91 | 1009.7 |
| 20260507025514 | 63 | 18 | 0.0 | 0.0 | 0.00 | 0.13 | 0.13 | 91 | 1009.9 |
| 20260507025012 | 63 | 18 | 0.0 | 0.0 | 0.00 | 0.13 | 0.13 | 91 | 1009.9 |
| 20260507024512 | 63 | 18 | 0.0 | 0.0 | 0.00 | 0.13 | 0.13 | 91 | 1009.8 |
| 20260507024011 | 62 | 18 | 0.0 | 0.9 | 0.00 | 0.13 | 0.13 | 91 | 1009.9 |
| 20260507023735 | 62 | 18 | 0.0 | 0.9 | 0.00 | 0.13 | 0.13 | 91 | 1009.8 |
| 20260507023010 | 63 | 18 | 0.0 | 1.7 | 0.00 | 0.13 | 0.13 | 90 | 1009.8 |
| 20260507022521 | 63 | 18 | 0.0 | 1.7 | 0.00 | 0.13 | 0.13 | 90 | 1009.7 |
| 20260507022008 | 63 | 94 | 0.0 | 1.7 | 0.00 | 0.13 | 0.13 | 90 | 1009.5 |
| 20260507021734 | 63 | 94 | 0.9 | 1.7 | 0.00 | 0.13 | 0.13 | 88 | 1009.3 |
| 20260507021008 | 64 | 94 | 0.9 | 1.7 | 0.00 | 0.13 | 0.13 | 88 | 1009.0 |
| 20260507020506 | 64 | 94 | 1.7 | 2.6 | 0.00 | 0.13 | 0.13 | 88 | 1008.9 |
| 20260507020006 | 64 | 98 | 1.7 | 2.6 | 0.00 | 0.13 | 0.13 | 88 | 1008.9 |
| 20260507015506 | 64 | 96 | 0.9 | 2.6 | 0.00 | 0.13 | 0.13 | 87 | 1009.0 |
| 20260507015004 | 65 | 95 | 0.9 | 1.7 | 0.00 | 0.13 | 0.13 | 86 | 1009.3 |
| 20260507014503 | 65 | 49 | 0.0 | 1.7 | 0.00 | 0.13 | 0.13 | 85 | 1009.4 |
| 20260507014015 | 65 | 340 | 0.9 | 1.7 | 0.00 | 0.13 | 0.13 | 85 | 1009.4 |
| 20260507013502 | 66 | 340 | 0.9 | 1.7 | 0.00 | 0.13 | 0.13 | 84 | 1009.5 |
| 20260507013002 | 66 | 346 | 0.9 | 1.7 | 0.00 | 0.13 | 0.13 | 84 | 1009.5 |
| 20260507012951 | 65 | 273 | 0.0 | 1.7 | 0.00 | 0.13 | 0.13 | 84 | 1009.4 |
| 20260507011959 | 67 | 273 | 0.0 | 1.7 | 0.00 | 0.13 | 0.13 | 82 | 1009.3 |
| 20260507011500 | 67 | 273 | 0.0 | 2.6 | 0.00 | 0.13 | 0.13 | 81 | 1009.4 |
| 20260507011000 | 67 | 267 | 0.9 | 2.6 | 0.00 | 0.13 | 0.13 | 81 | 1009.4 |
| 20260507010721 | 67 | 240 | 0.9 | 2.6 | 0.00 | 0.13 | 0.13 | 81 | 1009.5 |
| 20260507005958 | 67 | 232 | 0.9 | 4.3 | 0.00 | 0.13 | 0.13 | 81 | 1009.5 |
| 20260507005503 | 67 | 205 | 0.9 | 4.3 | 0.00 | 0.13 | 0.13 | 80 | 1009.3 |
| 20260507004956 | 67 | 217 | 0.9 | 4.3 | 0.00 | 0.13 | 0.13 | 80 | 1009.2 |
| 20260507004456 | 67 | 187 | 1.7 | 4.3 | 0.00 | 0.13 | 0.13 | 80 | 1009.3 |
| 20260507003954 | 67 | 211 | 1.7 | 4.3 | 0.00 | 0.13 | 0.13 | 80 | 1009.3 |
| 20260507003454 | 68 | 204 | 1.7 | 6.1 | 0.00 | 0.13 | 0.13 | 80 | 1009.1 |
| 20260507002953 | 68 | 182 | 1.7 | 6.1 | 0.00 | 0.13 | 0.13 | 79 | 1009.0 |
| 20260507002451 | 68 | 209 | 2.6 | 6.1 | 0.00 | 0.13 | 0.13 | 79 | 1009.0 |
| 20260507002428 | 68 | 210 | 2.6 | 6.1 | 0.00 | 0.13 | 0.13 | 79 | 1008.9 |
| 20260507001448 | 68 | 198 | 2.6 | 7.0 | 0.00 | 0.13 | 0.13 | 79 | 1008.8 |
| 20260507001214 | 68 | 182 | 2.6 | 7.0 | 0.00 | 0.13 | 0.13 | 78 | 1008.8 |
| 20260507000442 | 69 | 211 | 1.7 | 5.2 | 0.00 | 0.13 | 0.13 | 78 | 1009.0 |
| 20260506235940 | 69 | 193 | 1.7 | 4.3 | 0.00 | 0.13 | 0.13 | 78 | 1009.0 |
| 20260506235439 | 69 | 198 | 2.6 | 7.8 | 0.00 | 0.13 | 0.13 | 78 | 1008.9 |
| 20260506234937 | 69 | 200 | 3.5 | 7.8 | 0.00 | 0.13 | 0.13 | 77 | 1009.0 |
| 20260506234437 | 69 | 205 | 3.5 | 7.0 | 0.00 | 0.13 | 0.13 | 77 | 1009.0 |
| 20260506234200 | 70 | 187 | 3.5 | 7.0 | 0.00 | 0.13 | 0.13 | 76 | 1008.9 |
| 20260506233438 | 70 | 221 | 3.5 | 7.0 | 0.00 | 0.13 | 0.13 | 76 | 1009.0 |
| 20260506232938 | 70 | 224 | 3.5 | 7.0 | 0.00 | 0.13 | 0.13 | 75 | 1008.8 |
| 20260506232438 | 70 | 210 | 2.6 | 6.1 | 0.00 | 0.13 | 0.13 | 75 | 1008.6 |
| 20260506231936 | 71 | 198 | 2.6 | 7.8 | 0.00 | 0.13 | 0.13 | 75 | 1008.4 |
| 20260506231436 | 70 | 173 | 3.5 | 7.8 | 0.00 | 0.13 | 0.13 | 76 | 1008.4 |
| 20260506231155 | 70 | 175 | 3.5 | 7.8 | 0.00 | 0.13 | 0.13 | 75 | 1008.2 |
| 20260506230435 | 70 | 159 | 3.5 | 7.8 | 0.00 | 0.13 | 0.13 | 76 | 1008.5 |
| 20260506225933 | 70 | 207 | 3.5 | 9.6 | 0.00 | 0.13 | 0.13 | 76 | 1008.6 |
| 20260506225921 | 70 | 227 | 4.3 | 9.6 | 0.00 | 0.13 | 0.13 | 75 | 1008.7 |
| 20260506224927 | 70 | 209 | 4.3 | 8.7 | 0.00 | 0.13 | 0.13 | 74 | 1008.6 |
| 20260506224423 | 71 | 192 | 4.3 | 8.7 | 0.00 | 0.13 | 0.13 | 74 | 1008.6 |
| 20260506223923 | 71 | 149 | 4.3 | 10.4 | 0.00 | 0.13 | 0.13 | 74 | 1008.5 |
| 20260506223423 | 71 | 217 | 4.3 | 10.4 | 0.00 | 0.13 | 0.13 | 74 | 1008.6 |
| 20260506222923 | 71 | 198 | 5.2 | 10.4 | 0.00 | 0.13 | 0.13 | 74 | 1008.6 |
| 20260506222647 | 71 | 217 | 6.1 | 13.0 | 0.00 | 0.13 | 0.13 | 73 | 1008.6 |
| 20260506221923 | 71 | 202 | 6.1 | 13.0 | 0.00 | 0.13 | 0.13 | 73 | 1008.7 |
| 20260506221424 | 71 | 196 | 7.0 | 13.0 | 0.00 | 0.13 | 0.13 | 73 | 1008.7 |
| 20260506220923 | 71 | 202 | 7.0 | 13.0 | 0.00 | 0.13 | 0.13 | 72 | 1008.6 |
| 20260506220424 | 71 | 195 | 6.1 | 11.3 | 0.00 | 0.13 | 0.13 | 73 | 1008.6 |
| 20260506215924 | 72 | 246 | 6.1 | 11.3 | 0.00 | 0.13 | 0.13 | 72 | 1008.5 |
| 20260506215424 | 72 | 169 | 6.1 | 15.6 | 0.00 | 0.13 | 0.13 | 72 | 1008.5 |
| 20260506214923 | 71 | 217 | 6.1 | 15.6 | 0.00 | 0.13 | 0.13 | 74 | 1008.6 |
| 20260506214424 | 71 | 221 | 7.8 | 15.6 | 0.00 | 0.13 | 0.13 | 73 | 1008.4 |
| 20260506213924 | 71 | 164 | 7.8 | 16.5 | 0.00 | 0.13 | 0.13 | 72 | 1008.3 |
| 20260506213423 | 71 | 196 | 7.0 | 16.5 | 0.00 | 0.13 | 0.13 | 72 | 1008.3 |
| 20260506213408 | 71 | 211 | 7.0 | 15.6 | 0.00 | 0.13 | 0.13 | 72 | 1008.4 |
| 20260506212424 | 71 | 209 | 7.0 | 15.6 | 0.00 | 0.13 | 0.13 | 72 | 1008.4 |
| 20260506211924 | 71 | 233 | 7.0 | 15.6 | 0.00 | 0.13 | 0.13 | 72 | 1008.5 |
| 20260506211424 | 71 | 229 | 5.2 | 13.0 | 0.00 | 0.13 | 0.13 | 73 | 1008.5 |
| 20260506210920 | 71 | 222 | 5.2 | 13.0 | 0.00 | 0.13 | 0.13 | 74 | 1008.5 |
| 20260506210417 | 71 | 205 | 4.3 | 13.0 | 0.00 | 0.13 | 0.13 | 73 | 1008.5 |
| 20260506205913 | 71 | 241 | 4.3 | 13.0 | 0.00 | 0.13 | 0.13 | 74 | 1008.5 |
| 20260506205414 | 70 | 242 | 5.2 | 13.0 | 0.00 | 0.13 | 0.13 | 74 | 1008.4 |
| 20260506204913 | 70 | 208 | 4.3 | 13.9 | 0.00 | 0.13 | 0.13 | 75 | 1008.4 |
| 20260506204414 | 70 | 229 | 5.2 | 13.9 | 0.00 | 0.13 | 0.13 | 74 | 1008.4 |
| 20260506203917 | 70 | 213 | 7.0 | 13.9 | 0.00 | 0.13 | 0.13 | 75 | 1008.4 |
| 20260506203411 | 70 | 238 | 6.1 | 13.9 | 0.00 | 0.13 | 0.13 | 73 | 1008.4 |
| 20260506203356 | 70 | 198 | 5.2 | 11.3 | 0.00 | 0.13 | 0.13 | 74 | 1008.5 |
| 20260506202411 | 70 | 217 | 5.2 | 19.1 | 0.00 | 0.13 | 0.13 | 74 | 1008.5 |
| 20260506201907 | 69 | 219 | 6.1 | 19.1 | 0.00 | 0.13 | 0.13 | 77 | 1008.5 |
| 20260506201408 | 69 | 211 | 7.8 | 20.0 | 0.00 | 0.13 | 0.13 | 75 | 1008.4 |
| 20260506201345 | 69 | 228 | 7.0 | 20.0 | 0.00 | 0.13 | 0.13 | 75 | 1008.6 |
| 20260506200624 | 69 | 272 | 5.2 | 14.8 | 0.00 | 0.13 | 0.13 | 76 | 1008.7 |
| 20260506195859 | 69 | 224 | 5.2 | 8.7 | 0.00 | 0.13 | 0.13 | 75 | 1008.5 |
| 20260506195359 | 69 | 175 | 6.1 | 14.8 | 0.00 | 0.13 | 0.13 | 77 | 1008.6 |
| 20260506194858 | 68 | 205 | 6.1 | 14.8 | 0.00 | 0.13 | 0.13 | 76 | 1008.5 |
| 20260506194353 | 68 | 240 | 6.1 | 11.3 | 0.00 | 0.13 | 0.13 | 77 | 1008.5 |
| 20260506193854 | 68 | 214 | 5.2 | 11.3 | 0.00 | 0.13 | 0.13 | 78 | 1008.5 |
| 20260506193612 | 68 | 198 | 4.3 | 8.7 | 0.00 | 0.13 | 0.13 | 78 | 1008.6 |
| 20260506192847 | 67 | 234 | 4.3 | 10.4 | 0.00 | 0.13 | 0.13 | 79 | 1008.7 |
| 20260506192614 | 67 | 220 | 5.2 | 10.4 | 0.00 | 0.13 | 0.13 | 80 | 1008.6 |
| 20260506192109 | 67 | 169 | 5.2 | 9.6 | 0.00 | 0.13 | 0.13 | 80 | 1008.8 |
| 20260506191346 | 67 | 183 | 5.2 | 9.6 | 0.00 | 0.13 | 0.13 | 80 | 1009.1 |
| 20260506190845 | 67 | 180 | 5.2 | 9.6 | 0.00 | 0.13 | 0.13 | 80 | 1009.0 |
| 20260506190344 | 67 | 167 | 5.2 | 9.6 | 0.00 | 0.13 | 0.13 | 80 | 1009.2 |
| 20260506185842 | 67 | 235 | 5.2 | 9.6 | 0.00 | 0.13 | 0.13 | 80 | 1009.1 |
| 20260506185339 | 67 | 199 | 5.2 | 13.9 | 0.00 | 0.13 | 0.13 | 80 | 1009.1 |
| 20260506184839 | 67 | 235 | 6.1 | 10.4 | 0.00 | 0.13 | 0.13 | 79 | 1009.4 |
| 20260506184337 | 67 | 212 | 6.1 | 13.9 | 0.00 | 0.13 | 0.13 | 80 | 1009.4 |
| 20260506184052 | 67 | 221 | 6.1 | 13.9 | 0.00 | 0.13 | 0.13 | 80 | 1009.4 |
| 20260506183341 | 67 | 243 | 5.2 | 10.4 | 0.00 | 0.13 | 0.13 | 80 | 1009.8 |
| 20260506183315 | 67 | 217 | 4.3 | 15.6 | 0.00 | 0.13 | 0.13 | 81 | 1009.6 |
| 20260506182608 | 67 | 212 | 6.1 | 15.6 | 0.00 | 0.13 | 0.13 | 80 | 1009.5 |
| 20260506181835 | 66 | 168 | 7.0 | 15.6 | 0.00 | 0.13 | 0.13 | 80 | 1009.6 |
| 20260506181333 | 67 | 181 | 6.1 | 15.6 | 0.00 | 0.13 | 0.13 | 80 | 1009.5 |
| 20260506180833 | 67 | 173 | 6.1 | 12.2 | 0.00 | 0.13 | 0.13 | 80 | 1009.7 |
| 20260506180333 | 66 | 234 | 5.2 | 12.2 | 0.00 | 0.13 | 0.13 | 80 | 1009.7 |
| 20260506175831 | 66 | 234 | 4.3 | 11.3 | 0.00 | 0.13 | 0.13 | 82 | 1009.7 |
| 20260506175331 | 66 | 236 | 4.3 | 9.6 | 0.00 | 0.13 | 0.13 | 82 | 1009.7 |
| 20260506174836 | 66 | 144 | 3.5 | 11.3 | 0.00 | 0.13 | 0.13 | 82 | 1009.4 |
| 20260506174328 | 65 | 229 | 4.3 | 11.3 | 0.00 | 0.13 | 0.13 | 81 | 1009.5 |
| 20260506174101 | 66 | 219 | 5.2 | 10.4 | 0.00 | 0.13 | 0.13 | 81 | 1009.5 |
| 20260506173328 | 66 | 197 | 6.1 | 10.4 | 0.00 | 0.13 | 0.13 | 82 | 1009.7 |
| 20260506173048 | 66 | 193 | 4.3 | 10.4 | 0.00 | 0.13 | 0.13 | 82 | 1009.8 |
| 20260506172327 | 66 | 157 | 5.2 | 10.4 | 0.00 | 0.13 | 0.13 | 82 | 1010.0 |
| 20260506171827 | 65 | 213 | 5.2 | 10.4 | 0.00 | 0.13 | 0.13 | 82 | 1009.8 |
| 20260506171325 | 65 | 190 | 4.3 | 10.4 | 0.00 | 0.13 | 0.13 | 83 | 1009.8 |
| 20260506170825 | 65 | 213 | 4.3 | 10.4 | 0.00 | 0.13 | 0.13 | 83 | 1010.0 |
| 20260506170330 | 65 | 207 | 4.3 | 10.4 | 0.00 | 0.13 | 0.13 | 84 | 1009.9 |
| 20260506165822 | 64 | 215 | 3.5 | 9.6 | 0.00 | 0.13 | 0.13 | 84 | 1010.1 |
| 20260506165322 | 64 | 178 | 4.3 | 9.6 | 0.00 | 0.13 | 0.13 | 84 | 1010.0 |
| 20260506164823 | 64 | 221 | 5.2 | 12.2 | 0.00 | 0.13 | 0.13 | 84 | 1010.0 |
| 20260506164321 | 64 | 162 | 4.3 | 12.2 | 0.00 | 0.13 | 0.13 | 84 | 1010.1 |
| 20260506163821 | 64 | 138 | 4.3 | 12.2 | 0.00 | 0.13 | 0.13 | 84 | 1010.0 |
| 20260506163320 | 64 | 182 | 6.1 | 12.2 | 0.00 | 0.13 | 0.13 | 85 | 1010.3 |
| 20260506162818 | 63 | 198 | 5.2 | 12.2 | 0.00 | 0.13 | 0.13 | 85 | 1010.4 |